OZ1IEP-5 Weather Reports


time (UTC)temp
C
wind
direction
speed
KPH
gust
KPH
rain 1hr
cm
rain 24hr
cm
rain mn
cm
humidity
%
barometer
mb
20260906221005 13 186 0.0 8.0 0.00 0.00 0.00 88 1020.7
20260906220008 13 185 0.0 8.0 0.00 0.00 0.00 88 1020.8
20260906215006 13 192 0.0 0.0 0.00 0.00 0.00 88 1020.9
20260906214005 13 181 0.0 0.0 0.00 0.00 0.00 87 1020.9
20260906213007 13 184 0.0 0.0 0.00 0.00 0.00 87 1021.0
20260906212005 13 196 0.0 0.0 0.00 0.00 0.00 87 1021.0
20260906211006 13 184 0.0 0.0 0.00 0.00 0.00 86 1021.0
20260906210007 13 170 0.0 0.0 0.00 0.00 0.00 86 1021.0
20260906205006 13 170 0.0 0.0 0.00 0.00 0.00 86 1021.0
20260906204005 13 173 0.0 0.0 0.00 0.00 0.00 85 1021.0
20260906203008 13 169 0.0 0.0 0.00 0.00 0.00 85 1021.1
20260906202006 13 189 0.0 0.0 0.00 0.00 0.00 84 1021.0
20260906201005 13 198 0.0 0.0 0.00 0.00 0.00 84 1021.0
20260906200009 14 207 0.0 0.0 0.00 0.00 0.00 83 1021.0
20260906195006 14 179 0.0 0.0 0.00 0.00 0.00 82 1021.0
20260906194006 14 179 0.0 0.0 0.00 0.00 0.00 82 1021.2
20260906193008 14 174 0.0 0.0 0.00 0.00 0.00 82 1021.3
20260906192006 15 206 0.0 0.0 0.00 0.00 0.00 81 1021.4
20260906191006 15 197 0.0 0.0 0.00 0.00 0.00 81 1021.4
20260906190018 15 198 0.0 0.0 0.00 0.00 0.00 80 1021.3
20260906185006 15 194 0.0 0.0 0.00 0.00 0.00 80 1021.4
20260906184006 15 195 0.0 4.8 0.00 0.00 0.00 80 1021.4
20260906183008 15 229 0.0 4.8 0.00 0.00 0.00 79 1021.3
20260906182005 16 219 0.0 4.8 0.00 0.00 0.00 78 1021.3
20260906181006 16 240 0.0 3.2 0.00 0.00 0.00 78 1021.3
20260906180008 16 224 0.0 4.8 0.00 0.00 0.00 77 1021.1
20260906175005 16 227 0.0 9.7 0.00 0.00 0.00 76 1021.2
20260906174005 16 236 0.0 1.6 0.00 0.00 0.00 76 1021.1
20260906173007 16 224 0.0 4.8 0.00 0.00 0.00 75 1021.1
20260906172006 16 235 1.6 9.7 0.00 0.00 0.00 75 1021.2
20260906171006 16 216 0.0 9.7 0.00 0.00 0.00 74 1021.3
20260906170008 17 220 0.0 8.0 0.00 0.00 0.00 73 1021.3
20260906165005 17 226 0.0 8.0 0.00 0.00 0.00 73 1021.3
20260906164005 17 221 0.0 4.8 0.00 0.00 0.00 73 1021.3
20260906163008 17 228 0.0 11.3 0.00 0.00 0.00 73 1021.4
20260906162005 17 239 0.0 4.8 0.00 0.00 0.00 73 1021.4
20260906161005 17 238 0.0 1.6 0.00 0.00 0.00 73 1021.4
20260906160008 17 255 0.0 8.0 0.00 0.00 0.00 73 1021.4
20260906155005 17 254 0.0 1.6 0.00 0.00 0.00 72 1021.4
20260906154005 17 210 0.0 4.8 0.00 0.00 0.00 70 1021.4
20260906153008 17 260 0.0 9.7 0.00 0.00 0.00 70 1021.3
20260906152005 17 251 0.0 4.8 0.00 0.00 0.00 70 1021.3
20260906151005 17 291 0.0 9.7 0.00 0.00 0.00 70 1021.1
20260906150008 18 285 0.0 4.8 0.00 0.00 0.00 68 1021.2
20260906145005 18 234 0.0 8.0 0.00 0.00 0.00 68 1021.4
20260906144006 18 260 0.0 4.8 0.00 0.00 0.00 69 1021.4
20260906143007 18 257 0.0 4.8 0.00 0.00 0.00 66 1021.4
20260906142005 18 243 0.0 8.0 0.00 0.00 0.00 68 1021.4
20260906141006 18 248 0.0 4.8 0.00 0.00 0.00 66 1021.4
20260906140007 18 271 0.0 4.8 0.00 0.00 0.00 66 1021.4
20260906135005 18 248 0.0 11.3 0.00 0.00 0.00 67 1021.2
20260906134005 18 278 0.0 4.8 0.00 0.00 0.00 66 1021.3
20260906133008 18 248 0.0 4.8 0.00 0.00 0.00 67 1021.3
20260906132005 17 273 0.0 16.1 0.00 0.00 0.00 66 1021.0
20260906131006 18 297 0.0 4.8 0.00 0.00 0.00 68 1021.3
20260906130007 18 249 0.0 16.1 0.00 0.00 0.00 67 1021.3
20260906125005 18 245 0.0 4.8 0.00 0.00 0.00 68 1021.2
20260906124005 18 281 0.0 4.8 0.00 0.00 0.00 70 1021.2
20260906123008 17 276 0.0 8.0 0.00 0.00 0.00 68 1021.2
20260906122005 17 288 0.0 9.7 0.00 0.00 0.00 68 1021.0
20260906121006 17 279 0.0 9.7 0.00 0.00 0.00 68 1021.0
20260906120008 17 290 0.0 9.7 0.00 0.00 0.00 70 1021.0
20260906115006 17 275 0.0 8.0 0.00 0.00 0.00 73 1020.9
20260906114005 17 279 0.0 4.8 0.00 0.00 0.00 73 1020.9
20260906113007 17 288 0.0 11.3 0.00 0.00 0.00 73 1021.0
20260906112006 17 267 0.0 9.7 0.00 0.00 0.00 74 1021.0
20260906111006 17 267 0.0 8.0 0.00 0.00 0.00 75 1020.9
20260906110008 17 271 0.0 4.8 0.00 0.00 0.00 76 1020.8
20260906105006 17 281 0.0 4.8 0.00 0.00 0.00 76 1020.8
20260906104006 17 277 0.0 4.8 0.00 0.00 0.00 76 1020.8
20260906103008 17 268 0.0 4.8 0.00 0.00 0.00 79 1020.6
20260906102006 17 281 0.0 8.0 0.00 0.00 0.00 77 1020.4
20260906101005 17 282 0.0 4.8 0.00 0.00 0.00 77 1020.2
20260906100008 17 269 1.6 9.7 0.00 0.00 0.00 79 1020.3
20260906095006 16 302 0.0 11.3 0.00 0.00 0.00 78 1020.1
20260906094006 16 302 0.0 4.8 0.00 0.00 0.00 80 1019.9
20260906093008 16 292 0.0 9.7 0.00 0.00 0.00 80 1019.9
20260906092005 16 281 1.6 14.5 0.00 0.00 0.00 80 1019.8
20260906091006 16 302 0.0 4.8 0.00 0.00 0.00 80 1019.7
20260906090008 16 279 1.6 20.9 0.00 0.00 0.00 80 1019.6
20260906085005 16 296 1.6 11.3 0.00 0.00 0.00 80 1019.4
20260906084005 16 287 0.0 4.8 0.00 0.00 0.00 82 1019.4
20260906083008 15 300 0.0 19.3 0.00 0.00 0.00 82 1019.4
20260906082006 15 303 1.6 19.3 0.00 0.00 0.00 82 1019.4
20260906081005 15 280 1.6 20.9 0.00 0.00 0.00 82 1019.2
20260906080008 15 302 1.6 24.1 0.00 0.00 0.00 84 1019.0
20260906075005 15 311 8.0 24.1 0.00 0.00 0.00 83 1018.8
20260906074006 15 289 8.0 20.9 0.00 0.00 0.00 83 1018.8
20260906073008 15 288 1.6 20.9 0.00 0.00 0.00 84 1018.8
20260906072005 14 310 3.2 22.5 0.00 0.00 0.00 84 1018.6
20260906071005 14 300 1.6 32.2 0.00 0.00 0.00 84 1018.3
20260906070007 14 299 8.0 32.2 0.00 0.00 0.00 84 1018.3
20260906065006 14 300 8.0 32.2 0.00 0.00 0.00 85 1018.3
20260906064005 14 293 4.8 29.0 0.00 0.00 0.00 85 1018.2
20260906063011 14 298 0.0 9.7 0.00 0.00 0.00 86 1018.1
20260906062007 13 286 3.2 16.1 0.00 0.00 0.00 86 1017.8
20260906061007 13 280 3.2 24.1 0.00 0.00 0.00 86 1017.8
20260906060010 13 307 1.6 24.1 0.00 0.00 0.00 86 1017.8
20260906055009 13 297 3.2 24.1 0.00 0.00 0.00 86 1017.6
20260906054009 13 294 1.6 20.9 0.00 0.00 0.00 86 1017.4
20260906053009 13 290 4.8 24.1 0.00 0.00 0.00 86 1017.3
20260906052006 13 297 11.3 29.0 0.00 0.00 0.00 87 1017.2
20260906051006 13 300 3.2 22.5 0.00 0.00 0.00 87 1017.2
20260906050007 13 294 3.2 24.1 0.00 0.00 0.00 87 1017.1
20260906045005 13 293 3.2 27.4 0.00 0.00 0.00 87 1017.0
20260906044006 13 293 1.6 25.7 0.00 0.00 0.00 86 1016.8
20260906043009 13 297 3.2 32.2 0.00 0.00 0.00 86 1016.7
20260906042005 13 281 1.6 32.2 0.00 0.00 0.00 86 1016.5
20260906041006 13 289 4.8 27.4 0.00 0.00 0.00 86 1016.3
20260906040008 13 296 6.4 32.2 0.00 0.00 0.00 86 1016.2
20260906035006 13 288 4.8 22.5 0.00 0.00 0.00 86 1015.8
20260906034006 13 292 1.6 22.5 0.00 0.00 0.00 85 1015.7
20260906033008 13 296 6.4 48.3 0.00 0.00 0.00 85 1015.7
20260906032005 13 290 6.4 40.2 0.00 0.00 0.00 85 1015.6
20260906031005 13 298 14.5 33.8 0.00 0.00 0.00 85 1015.6
20260906030008 14 290 4.8 40.2 0.00 0.00 0.00 84 1015.5
20260906025005 14 302 20.9 41.8 0.00 0.00 0.00 85 1015.2
20260906024005 14 298 8.0 41.8 0.00 0.00 0.00 85 1015.2
20260906023008 14 294 11.3 41.8 0.00 0.00 0.00 85 1015.1
20260906022006 14 297 14.5 41.8 0.00 0.00 0.00 85 1014.9
20260906021005 14 304 11.3 41.8 0.00 0.00 0.00 84 1014.8
20260906020009 13 290 11.3 37.0 0.00 0.00 0.00 85 1014.6
20260906015006 14 305 9.7 37.0 0.00 0.00 0.00 85 1014.7
20260906014005 14 294 3.2 32.2 0.00 0.00 0.00 85 1014.6
20260906013007 14 290 8.0 41.8 0.00 0.00 0.00 84 1014.5
20260906012005 14 283 9.7 32.2 0.00 0.00 0.00 84 1014.5
20260906011006 14 291 3.2 25.7 0.00 0.00 0.00 84 1014.3
20260906010008 13 298 1.6 35.4 0.00 0.00 0.00 84 1014.1
20260906005005 13 280 3.2 33.8 0.00 0.00 0.00 84 1014.1
20260906004006 14 283 3.2 37.0 0.00 0.00 0.00 84 1014.0
20260906003008 14 292 8.0 51.5 0.00 0.00 0.00 84 1013.9
20260906002006 14 283 9.7 38.6 0.00 0.00 0.00 85 1013.8
20260906001005 14 299 8.0 41.8 0.00 0.00 0.00 85 1013.5
20260906000008 14 297 9.7 37.0 0.00 0.00 0.00 84 1013.5
20260905235006 14 291 3.2 40.2 0.00 0.00 0.00 84 1013.4
20260905234005 14 279 4.8 32.2 0.00 0.00 0.00 84 1013.2
20260905233008 14 283 1.6 41.8 0.00 0.00 0.00 83 1013.1
20260905232006 14 289 6.4 37.0 0.00 0.00 0.00 83 1013.0
20260905231005 14 285 4.8 38.6 0.00 0.00 0.00 83 1012.9
20260905230007 14 283 8.0 27.4 0.00 0.00 0.00 82 1012.9
20260905225006 14 286 8.0 40.2 0.00 0.00 0.00 82 1012.6
20260905224006 14 290 6.4 32.2 0.00 0.00 0.00 82 1012.5
20260905223008 14 298 8.0 32.2 0.00 0.00 0.00 82 1012.4
20260905222006 14 281 4.8 32.2 0.00 0.00 0.00 82 1012.3